sat.trackr.live / text

‹ back to catalog

STARLINK-34583

NORAD 64713 · 2025-142T

PAYLOAD ACTIVE UNKNOWN

§ Identity

Operator
Country
US
Launch date
2025-06-28
Launch site
AFWTR
Launch vehicle
Mass (kg)
RCS (m²)

Purposes: comms

External: N2YO · Heavens-Above · Gunter

§ Orbital elements

Epoch: 2026-09-20T18:06:47.179008Z

Period
94.14 min
Inclination
69.9999°
Eccentricity
0.0003311
Mean motion
15.29568974 rev/d
Perigee alt
474.8 km
Apogee alt
479.4 km
Semi-major
6,855.2 km
B*
3.4191e-4
RAAN
180.0459°
Arg perigee
258.9177°
Mean anomaly
101.1626°
Rev number
6,874

§ Raw data

STARLINK-345831 64713U 25142T   26263.75471272  .00009710  00000+0  34191-3 0  99962 64713  69.9999 180.0459 0003311 258.9177 101.1626 15.29568974 68746

JSON: /api/v1/satellites/64713 · /tle

For live sub-satellite position, see the globe view (requires WebGL).

§ Visibility from observer

Set your observer location to see the next 7 days of passes ≥ 10°. The values pass through the URL so the page stays shareable.

No JS? Fill the form by hand. The geolocation button needs JavaScript.